TimeCST,TemperatureF,Dew PointF,Humidity,Sea Level PressureIn,VisibilityMPH,Wind Direction,Wind SpeedMPH,Gust SpeedMPH,PrecipitationIn,Events,Conditions,WindDirDegrees,DateUTC
12:15 AM,33.8,28.4,81,30.24,10.0,Calm,Calm,-,N/A,,Overcast,0,2012-11-14 06:15:00
12:35 AM,35.6,28.4,75,30.25,10.0,Calm,Calm,-,N/A,,Overcast,0,2012-11-14 06:35:00
12:55 AM,35.6,28.4,75,30.25,10.0,Calm,Calm,-,N/A,,Overcast,0,2012-11-14 06:55:00
1:15 AM,35.6,28.4,75,30.24,10.0,Calm,Calm,-,N/A,,Overcast,0,2012-11-14 07:15:00
1:35 AM,35.6,28.4,75,30.24,10.0,Calm,Calm,-,N/A,,Overcast,0,2012-11-14 07:35:00
1:55 AM,33.8,28.4,81,30.24,10.0,Calm,Calm,-,N/A,,Overcast,0,2012-11-14 07:55:00
2:15 AM,35.6,28.4,75,30.24,10.0,Calm,Calm,-,N/A,,Overcast,0,2012-11-14 08:15:00
2:35 AM,35.6,28.4,75,30.25,10.0,Calm,Calm,-,N/A,,Overcast,0,2012-11-14 08:35:00
2:55 AM,33.8,28.4,81,30.25,10.0,Calm,Calm,-,N/A,,Overcast,0,2012-11-14 08:55:00
3:15 AM,33.8,28.4,81,30.25,10.0,Calm,Calm,-,N/A,,Scattered Clouds,0,2012-11-14 09:15:00
3:35 AM,33.8,28.4,81,30.25,10.0,Calm,Calm,-,N/A,,Clear,0,2012-11-14 09:35:00
3:55 AM,32.0,28.4,87,30.25,10.0,Calm,Calm,-,N/A,,Clear,0,2012-11-14 09:55:00
4:15 AM,32.0,28.4,87,30.25,10.0,Calm,Calm,-,N/A,,Clear,0,2012-11-14 10:15:00
4:35 AM,32.0,28.4,87,30.25,10.0,Calm,Calm,-,N/A,,Clear,0,2012-11-14 10:35:00
4:55 AM,30.2,26.6,86,30.25,10.0,Calm,Calm,-,N/A,,Clear,0,2012-11-14 10:55:00
5:15 AM,30.2,26.6,86,30.25,10.0,Calm,Calm,-,N/A,,Scattered Clouds,0,2012-11-14 11:15:00
5:35 AM,30.2,26.6,86,30.26,10.0,Calm,Calm,-,N/A,,Scattered Clouds,0,2012-11-14 11:35:00
5:55 AM,30.2,26.6,86,30.25,10.0,Calm,Calm,-,N/A,,Scattered Clouds,0,2012-11-14 11:55:00
6:15 AM,30.2,26.6,86,30.25,10.0,Calm,Calm,-,N/A,,Mostly Cloudy,0,2012-11-14 12:15:00
6:35 AM,30.2,26.6,86,30.25,10.0,Calm,Calm,-,N/A,,Mostly Cloudy,0,2012-11-14 12:35:00
6:55 AM,30.2,26.6,86,30.26,10.0,Calm,Calm,-,N/A,,Mostly Cloudy,0,2012-11-14 12:55:00
7:15 AM,30.2,26.6,86,30.26,10.0,Calm,Calm,-,N/A,,Mostly Cloudy,0,2012-11-14 13:15:00
7:35 AM,30.2,26.6,86,30.26,10.0,Calm,Calm,-,N/A,,Mostly Cloudy,0,2012-11-14 13:35:00
7:55 AM,30.2,26.6,86,30.27,10.0,Calm,Calm,-,N/A,,Scattered Clouds,0,2012-11-14 13:55:00
8:14 AM,32.0,28.4,87,30.27,10.0,Calm,Calm,-,N/A,,Clear,0,2012-11-14 14:14:00
8:35 AM,32.0,26.6,80,30.27,10.0,Calm,Calm,-,N/A,,Clear,0,2012-11-14 14:35:00
8:55 AM,33.8,28.4,81,30.27,10.0,Calm,Calm,-,N/A,,Clear,0,2012-11-14 14:55:00
9:15 AM,35.6,28.4,75,30.27,10.0,Calm,Calm,-,N/A,,Clear,0,2012-11-14 15:15:00
9:35 AM,37.4,30.2,75,30.27,10.0,Calm,Calm,-,N/A,,Clear,0,2012-11-14 15:35:00
9:54 AM,39.2,30.2,70,30.27,10.0,Calm,Calm,-,N/A,,Clear,0,2012-11-14 15:54:00
10:15 AM,42.8,30.2,61,30.27,10.0,Calm,Calm,-,N/A,,Clear,0,2012-11-14 16:15:00
10:34 AM,44.6,28.4,53,30.26,10.0,Calm,Calm,-,N/A,,Clear,0,2012-11-14 16:34:00
10:55 AM,46.4,28.4,50,30.26,10.0,Calm,Calm,-,N/A,,Clear,0,2012-11-14 16:55:00
11:15 AM,46.4,28.4,50,30.26,10.0,Calm,Calm,-,N/A,,Clear,0,2012-11-14 17:15:00
11:35 AM,48.2,28.4,46,30.25,10.0,Calm,Calm,-,N/A,,Clear,0,2012-11-14 17:35:00
11:54 AM,48.2,28.4,46,30.24,10.0,Calm,Calm,-,N/A,,Clear,0,2012-11-14 17:54:00
12:15 PM,50.0,26.6,40,30.23,10.0,Calm,Calm,-,N/A,,Clear,0,2012-11-14 18:15:00
12:35 PM,50.0,26.6,40,30.22,10.0,Calm,Calm,-,N/A,,Clear,0,2012-11-14 18:35:00
12:55 PM,50.0,26.6,40,30.22,10.0,Calm,Calm,-,N/A,,Clear,0,2012-11-14 18:55:00
1:15 PM,50.0,28.4,43,30.22,10.0,Calm,Calm,-,N/A,,Clear,0,2012-11-14 19:15:00
1:35 PM,51.8,26.6,38,30.21,10.0,Calm,Calm,-,N/A,,Clear,0,2012-11-14 19:35:00
1:55 PM,51.8,24.8,35,30.21,10.0,Calm,Calm,-,N/A,,Clear,0,2012-11-14 19:55:00
2:15 PM,50.0,24.8,37,30.20,10.0,Calm,Calm,-,N/A,,Clear,0,2012-11-14 20:15:00
2:35 PM,51.8,28.4,41,30.20,10.0,Calm,Calm,-,N/A,,Clear,0,2012-11-14 20:35:00
2:55 PM,51.8,28.4,41,30.19,10.0,Calm,Calm,-,N/A,,Clear,0,2012-11-14 20:55:00
3:15 PM,51.8,28.4,41,30.19,10.0,Calm,Calm,-,N/A,,Clear,0,2012-11-14 21:15:00
3:35 PM,50.0,28.4,43,30.19,10.0,Calm,Calm,-,N/A,,Clear,0,2012-11-14 21:35:00
3:55 PM,50.0,30.2,47,30.19,10.0,Calm,Calm,-,N/A,,Clear,0,2012-11-14 21:55:00
4:15 PM,50.0,30.2,47,30.18,10.0,Calm,Calm,-,N/A,,Clear,0,2012-11-14 22:15:00
4:35 PM,48.2,32.0,54,30.18,10.0,Calm,Calm,-,N/A,,Clear,0,2012-11-14 22:35:00
4:55 PM,46.4,32.0,57,30.18,10.0,Calm,Calm,-,N/A,,Clear,0,2012-11-14 22:55:00
5:15 PM,44.6,32.0,61,30.17,10.0,Calm,Calm,-,N/A,,Clear,0,2012-11-14 23:15:00
5:35 PM,44.6,33.8,66,30.17,10.0,Calm,Calm,-,N/A,,Clear,0,2012-11-14 23:35:00
5:54 PM,41.0,33.8,76,30.17,10.0,Calm,Calm,-,N/A,,Clear,0,2012-11-14 23:54:00
6:15 PM,42.8,32.0,66,30.17,10.0,Calm,Calm,-,N/A,,Clear,0,2012-11-15 00:15:00
6:35 PM,42.8,32.0,66,30.17,10.0,Calm,Calm,-,N/A,,Clear,0,2012-11-15 00:35:00
6:55 PM,39.2,30.2,70,30.17,10.0,Calm,Calm,-,N/A,,Clear,0,2012-11-15 00:55:00
7:14 PM,39.2,32.0,75,30.17,10.0,Calm,Calm,-,N/A,,Scattered Clouds,0,2012-11-15 01:14:00
7:34 PM,39.2,32.0,75,30.17,10.0,Calm,Calm,-,N/A,,Overcast,0,2012-11-15 01:34:00
7:55 PM,39.2,32.0,75,30.17,10.0,Calm,Calm,-,N/A,,Overcast,0,2012-11-15 01:55:00
8:35 PM,39.2,32.0,75,30.16,10.0,Calm,Calm,-,N/A,,Overcast,0,2012-11-15 02:35:00
8:55 PM,41.0,32.0,70,30.16,10.0,Calm,Calm,-,N/A,,Overcast,0,2012-11-15 02:55:00
9:14 PM,41.0,32.0,70,30.16,10.0,Calm,Calm,-,N/A,,Mostly Cloudy,0,2012-11-15 03:14:00
9:35 PM,41.0,32.0,70,30.16,10.0,Calm,Calm,-,N/A,,Mostly Cloudy,0,2012-11-15 03:35:00
9:54 PM,41.0,32.0,70,30.16,10.0,Calm,Calm,-,N/A,,Scattered Clouds,0,2012-11-15 03:54:00
10:15 PM,39.2,32.0,75,30.16,10.0,Calm,Calm,-,N/A,,Mostly Cloudy,0,2012-11-15 04:15:00
10:35 PM,39.2,30.2,70,30.16,10.0,Calm,Calm,-,N/A,,Mostly Cloudy,0,2012-11-15 04:35:00
10:55 PM,39.2,30.2,70,30.15,10.0,Calm,Calm,-,N/A,,Overcast,0,2012-11-15 04:55:00
11:02 PM,37.4,32.0,81,30.15,10.0,Calm,Calm,-,N/A,,Overcast,0,2012-11-15 05:02:00
11:37 PM,39.2,30.2,70,30.15,10.0,Calm,Calm,-,N/A,,Scattered Clouds,0,2012-11-15 05:37:00
11:55 PM,37.4,32.0,81,30.14,10.0,Calm,Calm,-,N/A,,Mostly Cloudy,0,2012-11-15 05:55:00